Location: Epalinges
(46.5518°N, 6.6683°E)
Time: 20:05:55
(UTC+00:00)

Resurs 1-4 Rocket - Pass Details

Date: 20 June 2021
Orbit: 800 x 813 km, 98.6° (Epoch: 02 August)

Event Time Altitude Azimuth Distance (km) Brightness Sun altitude
Rises 02:53:52 0° 0° (N) 3,344 6.1 -6.8°
Reaches altitude 10° 02:57:03 10° 341° (NNW) 2,410 4.9 -6.4°
Maximum altitude 03:00:14 16° 304° (WNW) 1,994 4.0 -6.1°
Drops below altitude 10° 03:03:25 10° 266° (W) 2,404 4.1 -5.7°
Enters shadow 03:05:29 - 252° (WSW) 2,978 4.5 -5.4°
